Regional Weather Roundup
Issued by NWS

Home | Current Version | Previous Version | Graphics & Text | Print | Product List | Glossary On
Versions: 1 2 3 4 5 6 7 8 9 10 11 12 13 14 15 16 17 18 19 20 21 22 23 24 25 26 27 28 29 30 31 32 33 34 35 36 37 38 39 40 41 42 43 44 45 46 47 48 49 50
000
ASUS45 KBOU 282307
RWRCO

WEATHER ROUNDUP FOR COLORADO
NATIONAL WEATHER SERVICE DENVER/BOULDER CO
400 PM MST FRI NOV 28 2014

NOTE: "FAIR" INDICATES FEW OR NO CLOUDS BELOW 12000 FEET WITH NO
SIGNIFICANT WEATHER AND/OR OBSTRUCTIONS TO VISIBILITY.

COZ001>005-013-030-031-290000-
...NORTHWEST COLORADO...

CITY           SKY/WX    TMP DP  RH WIND       PRES   REMARKS
CRAIG          MOCLDY    51  19  28 CALM      29.97F
HAYDEN         MOCLDY    39  23  52 E9        29.99F
MEEKER         MOCLDY    51  20  29 SW5       30.01F
MOUNT WERNER   NOT AVBL
STEAMBOAT SPGS MOCLDY    33  26  73 CALM      30.01F
WALDEN         MOCLDY    43  12  28 S13G18    30.03F
$$

COZ006>008-011-290000-
...WEST CENTRAL VALLEYS...

CITY           SKY/WX    TMP DP  RH WIND       PRES   REMARKS
GRAND JUNCTION PTCLDY    49  23  36 CALM      30.03F
MONTROSE       CLEAR     57  22  25 NW6       30.05F
EAGLE          PTCLDY    54  19  26 W8        30.04F
RIFLE          PTCLDY    50  25  37 CALM      30.03F
DELTA          CLEAR     58  24  27 SW3       30.02F
NUCLA          CLEAR     61  10  13 SW7       30.10S
$$

COZ017>023-064>068-290000-
...SOUTHWEST COLORADO...

CITY           SKY/WX    TMP DP  RH WIND       PRES   REMARKS
DURANGO        CLEAR     57  12  17 SW6       30.13S
CORTEZ         CLEAR     58  21  24 S6        30.11S
PAGOSA SPRINGS CLEAR     55   2  11 SW6       30.16F
TELLURIDE      CLEAR     51   5  15 W10G18    30.22S
WOLF CREEK PAS CLEAR     32   7  34 MISG      30.29S
$$

COZ009-010-012-014-032>034-037-058>063-290000-
...CENTRAL COLORADO...

CITY           SKY/WX    TMP DP  RH WIND       PRES   REMARKS
ASPEN          PTCLDY    49  18  29 NW7       30.07S
BUENA VISTA    PTCLDY    54   2  12 CALM      30.06R
COPPER MTN     MOCLDY    37   5  25 W22       30.23S
BERTHOUD PASS  NOT AVBL
COTTONWOOD PAS PTCLDY    50  -8   9 W28G51    30.10R
GUNNISON       CLEAR     36  19  51 N7        30.17F
KREMMLING      MOCLDY    50  12  22 SW6       30.04S
LEADVILLE      PTCLDY    42   8  24 W12       30.14S
MONARCH PASS   CLEAR     34   5  29 W38G56    30.33S WCI  19
SALIDA         PTCLDY    59   0   9 S6        30.12S
SUNLIGHT       PTCLDY    36  23  60 CALM      30.20F
WILKERSON PASS MOCLDY    39   0  19 W10G21    30.19R
$$

COZ069>075-290000-
...SAN LUIS VALLEY/SANGRE DE CRISTO MOUNTAINS...

CITY           SKY/WX    TMP DP  RH WIND       PRES   REMARKS
ALAMOSA        CLEAR     57   7  13 S5        30.06F
LA VETA PASS   MOCLDY    43   9  24 S17G35    30.12S
SAGUACHE       CLEAR     50  16  25 SE3       30.10R
$$

COZ035-036-038>040-290000-
...NORTHERN COLORADO FRONT RANGE...

CITY           SKY/WX    TMP DP  RH WIND       PRES   REMARKS
DENVER INTL AP CLOUDY    56  20  24 SE10      29.82F
DMNS CITY PARK   N/A     64  12  13 W2        29.83R
AURORA         MOCLDY    58  20  23 SE10      29.84F
FRONT RANGE AP NOT AVBL
ERIE MUNI ARPT CLOUDY    69   4   8 W16G26    29.80R
BOULDER MUN AP CLOUDY    66  12  12 S13G22    29.78R
CENTENNIAL     CLOUDY    59  21  23 CALM      29.84S
BROOMFIELD     MOCLDY    68  12  11 CALM      29.84R
FORT COLLINS   CLOUDY    64  12  13 W22G31    29.81S
LONGMONT       CLOUDY    69  10  10 CALM      29.80S
$$

COZ041-046-047-076>085-087-088-290000-
...PIKES PEAK/PALMER DIVIDE AND SOUTHERN FOOTHILLS...

CITY           SKY/WX    TMP DP  RH WIND       PRES   REMARKS
COLO. SPRINGS  CLOUDY    63   8  11 E8        29.89S
A. F. ACADEMY  CLOUDY    65   2   8 VRB2      29.90S
ELLICOTT       NOT AVBL
FALCON         NOT AVBL
FORT CARSON    CLOUDY    66  10  11 SW5       29.86S
LIMON          CLOUDY    57  10  15 SE5       29.85S
MONUMENT HILL  CLOUDY    55   9  15 W8        29.92S
TRINIDAD       CLOUDY    57  29  34 S6        29.92F
$$

COZ042>045-048>051-090-091-290000-
...NORTHEAST COLORADO...

CITY           SKY/WX    TMP DP  RH WIND       PRES   REMARKS
GREELEY ARPT   CLOUDY    48  28  46 E7        29.81S
AKRON          CLOUDY    56  19  23 SW9       29.80F
BURLINGTON     MOCLDY    63  17  17 NE6       29.80F
WRAY           CLOUDY    61  19  19 SW5       29.77S
STERLING       CLOUDY    50  37  62 W7        29.76S
HOLYOKE        CLOUDY    59  32  36 SW7       29.76S
FORT MORGAN    CLOUDY    54  27  35 CALM      29.80F
$$

COZ086-089-092>099-290000-
...SOUTHEAST COLORADO...

CITY           SKY/WX    TMP DP  RH WIND       PRES   REMARKS
PUEBLO         MOCLDY    68  15  13 SW5       29.83S
LA JUNTA       MOCLDY    64  17  16 SW12      29.81F
LAMAR          MOCLDY    64  14  14 SW8       29.78S
SPRINGFIELD      N/A     59  14  17 W6        29.85S
$$



USA.gov is the U.S. government's official web portal to all federal, state and local government web resources and services.